User: anonymous   Login
Location: Fouquenies
(49.4624°N, 2.0492°E)
Time: 23:45:49
(UTC+00:00)
Language:

Cosmos 1726 Rocket - Orbit

View from above orbital plane
View from above orbital plane
View from above satellite
View from above satellite

Ground track
Ground track

The orbit data is extracted from the following two-line orbital elements,

1 16496U 86006B   24105.73269272  .00000872  00000-0  98630-4 0  9993
2 16496  82.5280 192.0248 0020333 114.8334   0.9687 14.85185796 67236
Epoch (UTC): 14 April 2024 17:35:04
Eccentricity: 0.0020333
inclination: 82.5280°
perigee height: 599 km
apogee height: 627 km
right ascension of ascending node: 192.0248°
argument of perigee: 114.8334°
revolutions per day: 14.85185796
mean anomaly at epoch: 0.9687°
orbit number at epoch: 6723

The dashed part of the orbit path shows where the satellite is in the earth's shadow,  

DLR